Weather History for KDMO - November, 2013

Change the Weather History Date:

Friday, November 8, 2013

  Actual Average Record
Temperature  
Mean Temperature 48 °F 50 °F  
Max Temperature 64 °F 60 °F 81 °F (2005)
Min Temperature 31 °F 41 °F -5 °F (1991)
Degree Days  
Heating Degree Days 17 15  
Month to date heating degree days 116 109  
Since 1 July heating degree days 414 400  
Cooling Degree Days 0 0  
Month to date cooling degree days 0 0  
Year to date cooling degree days 1485 1487  
Moisture  
Dew Point 34 °F    
Average Humidity 66    
Maximum Humidity 92    
Minimum Humidity 39    
Precipitation  
Precipitation 0.00 in 0.11 in 1.53 in (2011)
Month to date precipitation 1.06 0.89  
Year to date precipitation 38.08 36.58  
Sea Level Pressure  
Sea Level Pressure 30.16 in    
Wind  
Wind Speed 14 mph (South)    
Max Wind Speed 26 mph    
Max Gust Speed 34 mph    
Visibility 10 miles    
Events      
T = Trace of Precipitation, MM = Missing Value Source: NWS Daily Summary

Daily Weather History Graph

Daily Weather History Graph

Search for Another Location

Airport or City:

Trip Planner

Search our weather history database for the weather conditions in past years. The results will help you decide how hot, cold, wet, or windy it might be!

Date:

Astronomy

Nov. 08, 2013 Rise Set
Actual Time 6:47 AM CST 5:04 PM CST
Civil Twilight 6:19 AM CST 5:32 PM CST
Nautical Twilight 5:47 AM CST 6:04 PM CST
Astronomical Twilight 5:16 AM CST 6:35 PM CST
Moon 11:43 AM CST (11/8) 10:26 PM CST (11/8)
Length of Visible Light 11h 13m
Length of Day
10h 17m
Waxing Crescent, 33% of the Moon is Illuminated
Nov 8
Waxing Crescent
Nov 9
First Quarter
Nov 17
Full
Nov 25
Last Quarter
Dec 2
New

Hourly Weather History & Observations

Time (CST) Temp. Windchill Dew Point Humidity Pressure Visibility Wind Dir Wind Speed Gust Speed Precip Events Conditions
12:53 AM 39.0 °F - 27.0 °F 62% 30.37 in 10.0 mi Calm Calm - N/A   Clear
1:53 AM 30.9 °F 26.2 °F 28.0 °F 89% 30.36 in 10.0 mi South 4.6 mph - N/A   Clear
2:53 AM 33.1 °F 28.7 °F 28.0 °F 82% 30.34 in 10.0 mi SE 4.6 mph - N/A   Clear
3:53 AM 30.9 °F 25.2 °F 27.0 °F 85% 30.34 in 10.0 mi SSE 5.8 mph - N/A   Clear
4:53 AM 30.9 °F 25.2 °F 27.0 °F 85% 30.34 in 10.0 mi SE 5.8 mph - N/A   Clear
5:53 AM 35.1 °F 27.9 °F 27.0 °F 72% 30.32 in 10.0 mi SSE 9.2 mph - N/A   Clear
6:53 AM 34.0 °F 28.0 °F 28.0 °F 79% 30.31 in 10.0 mi SE 6.9 mph - N/A   Clear
7:53 AM 39.9 °F 32.5 °F 30.0 °F 68% 30.29 in 10.0 mi SE 12.7 mph - N/A   Clear
8:53 AM 46.9 °F - 32.0 °F 56% 30.28 in 10.0 mi SSE 13.8 mph - N/A   Clear
9:53 AM 53.1 °F - 34.0 °F 48% 30.25 in 10.0 mi SSE 17.3 mph - N/A   Clear
10:53 AM 55.9 °F - 37.0 °F 49% 30.22 in 10.0 mi South 19.6 mph - N/A   Clear
11:53 AM 61.0 °F - 37.9 °F 42% 30.17 in 10.0 mi South 17.3 mph 28.8 mph N/A   Clear
12:53 PM 63.0 °F - 37.9 °F 40% 30.11 in 10.0 mi South 19.6 mph 27.6 mph N/A   Clear
1:53 PM 63.0 °F - 37.9 °F 40% 30.07 in 10.0 mi South 19.6 mph 29.9 mph N/A   Clear
2:53 PM 63.0 °F - 37.9 °F 40% 30.04 in 10.0 mi South 20.7 mph 26.5 mph N/A   Clear
3:53 PM 63.0 °F - 39.0 °F 41% 30.01 in 10.0 mi South 21.9 mph - N/A   Clear
4:53 PM 60.1 °F - 39.0 °F 46% 29.99 in 10.0 mi South 17.3 mph - N/A   Clear
5:53 PM 57.9 °F - 39.0 °F 49% 29.98 in 10.0 mi South 17.3 mph 25.3 mph N/A   Clear
6:53 PM 57.0 °F - 39.0 °F 51% 30.00 in 10.0 mi South 15.0 mph - N/A   Clear
7:53 PM 57.0 °F - 36.0 °F 45% 30.01 in 10.0 mi South 13.8 mph - N/A   Clear
8:53 PM 55.9 °F - 34.0 °F 44% 30.01 in 10.0 mi SSW 17.3 mph 25.3 mph N/A   Clear
9:53 PM 55.0 °F - 36.0 °F 49% 30.02 in 10.0 mi SSW 17.3 mph 24.2 mph N/A   Clear
10:53 PM 54.0 °F - 37.9 °F 55% 30.01 in 10.0 mi SSW 17.3 mph - N/A   Clear
11:53 PM 54.0 °F - 37.9 °F 55% 30.02 in 10.0 mi SSW 18.4 mph 26.5 mph N/A   Clear